Tracking 20083 objects as of 11-Dec-2019
HD Live streaming from Space Station
objects crossing your sky now

COSMOS 1823 DEB

Track COSMOS 1823 DEB now!
10-day predictions


NORAD ID: 18751
Int'l Code: 1987-020AC
Perigee: 1,481.7 km
Apogee: 1,607.1 km
Inclination: 73.6 °
Period: 116.8 minutes
Semi major axis: 7915 km
RCS: 0.1997 m2 (medium)
Launch date: February 20, 1987
Source: Commonwealth of Independent States (former USSR) (CIS)
Launch site: PLESETSK MISSILE AND SPACE COMPLEX (PKMTR)

Note: This is SATELLITE DEBRIS
aabbcc
Your satellite tracking list
Your tracking list is empty




NASA's NSSDC Master Catalog

Two Line Element Set (TLE):
1 18751U 87020AC  19344.76260880 +.00000123 +00000-0 +11369-2 0  9995
2 18751 073.6304 277.1869 0079228 278.9363 101.0516 12.32810917438848
Source of the keplerian elements: AFSPC